FW4829 Weather Reports


Display with metric or nautical units.
time (UTC)temp
F
wind
direction
speed
MPH
gust
MPH
rain 1hr
in
rain 24hr
in
rain mn
in
humidity
%
barometer
mb
20260505003050 73 260 2.0 5.0 0.00 0.00 0.00 63 1010.9
20260505001526 73 202 1.0 7.0 0.00 0.00 0.00 65 1011.0
20260505000030 72 236 2.0 10.0 0.00 0.00 0.00 66 1011.2
20260504234621 71 182 3.0 7.0 0.00 0.00 0.00 66 1011.2
20260504233022 72 101 1.0 5.0 0.00 0.00 0.00 64 1011.2
20260504231518 71 208 1.0 5.0 0.00 0.00 0.00 66 1011.3
20260504230015 71 207 2.0 6.0 0.00 0.00 0.00 67 1011.4
20260504224517 71 221 2.0 8.0 0.00 0.00 0.00 67 1011.5
20260504223014 69 238 2.0 7.0 0.00 0.00 0.00 68 1011.9
20260504221508 69 233 1.0 7.0 0.00 0.00 0.00 69 1012.1
20260504220006 68 272 2.0 7.0 0.00 0.00 0.00 69 1012.2
20260504214504 68 262 1.0 7.0 0.00 0.00 0.00 70 1012.2
20260504213006 66 288 2.0 8.0 0.00 0.00 0.00 70 1012.4
20260504211652 66 207 1.0 7.0 0.00 0.00 0.00 71 1012.6
20260504210057 65 186 1.0 8.0 0.00 0.00 0.00 73 1012.8
20260504204556 65 98 3.0 8.0 0.00 0.00 0.00 72 1012.8
20260504203053 64 130 2.0 6.0 0.00 0.00 0.00 74 1013.0
20260504201555 64 151 2.0 7.0 0.00 0.00 0.00 75 1013.0
20260504200052 62 229 3.0 7.0 0.00 0.00 0.00 76 1013.2
20260504194551 62 136 3.0 7.0 0.00 0.00 0.00 76 1013.2
20260504193045 61 72 1.0 7.0 0.00 0.00 0.00 78 1013.2
20260504191641 61 209 2.0 7.0 0.00 0.00 0.00 79 1013.3
20260504190044 60 177 0.0 7.0 0.00 0.00 0.00 81 1013.3
20260504184546 59 148 3.0 9.0 0.00 0.00 0.00 81 1013.5
20260504183035 58 219 4.0 7.0 0.00 0.00 0.00 82 1013.3
20260504181535 58 194 2.0 7.0 0.00 0.00 0.00 83 1013.3
20260504180032 57 148 4.0 10.0 0.00 0.00 0.00 82 1013.3
20260504174528 56 108 3.0 9.0 0.00 0.00 0.00 84 1013.4
20260504173026 56 199 2.0 8.0 0.00 0.00 0.00 85 1013.4
20260504171523 56 194 2.0 7.0 0.00 0.00 0.00 85 1013.2
20260504081556 72 51 4.0 11.0 0.00 0.00 0.00 44 1008.7
20260504044520 77 335 7.0 15.0 0.00 0.00 0.00 39 1008.6
20260504043020 77 32 8.0 14.0 0.00 0.00 0.00 38 1008.5
20260504041529 78 352 6.0 16.0 0.00 0.00 0.00 37 1008.3
20260504040013 78 337 5.0 16.0 0.00 0.00 0.00 37 1008.3
20260504034514 78 335 5.0 16.0 0.00 0.00 0.00 38 1008.3
20260504033009 79 333 6.0 13.0 0.00 0.00 0.00 38 1008.1
20260504031509 79 352 4.0 13.0 0.00 0.00 0.00 39 1008.0
20260504030004 80 316 5.0 12.0 0.00 0.00 0.00 39 1008.0
20260504024502 80 309 7.0 14.0 0.00 0.00 0.00 39 1008.0
20260504023101 81 325 5.0 11.0 0.00 0.00 0.00 38 1008.1
20260504021556 82 307 4.0 8.0 0.00 0.00 0.00 38 1007.9
20260504020109 83 333 3.0 8.0 0.00 0.00 0.00 38 1008.0
20260504014551 84 333 4.0 8.0 0.00 0.00 0.00 36 1008.0
20260504013051 84 326 3.0 9.0 0.00 0.00 0.00 36 1008.2
20260504011548 84 325 4.0 8.0 0.00 0.00 0.00 35 1008.1
20260504010045 84 287 4.0 9.0 0.00 0.00 0.00 34 1008.4
20260504004539 84 291 4.0 8.0 0.00 0.00 0.00 34 1008.6